Flag for U.S.A. Weather past 2 weeks in Fullerton, California, U.S.A.

Now
52 °F

Sunny.


Feels Like: 50 °F
Forecast: 49 / 60 °F
Wind: 6 mph from East

Location: Fullerton Municipal Airport

Current Time: Mar 1, 2015 at 7:26:16 AM

Latest Report: Mar 1, 2015 at 6:53 AM


Visibility: 10 mi

Pressure: 29.92 "Hg

Humidity: 83%

Dew point: 47 °F

Location of FullertonLocation

Historic Weather in Fullerton — Graph

°F

Fullerton temperature yesterday

Maximum temperature yesterday: 65 °F (at 12:53 PM)
Minimum temperature yesterday: 54 °F (at 10:53 PM)
Average temperature yesterday: 59 °F

Past Weeks' High & Low Weather Summary

 TemperatureHumidityPressure
High87 °F (Feb 14, 1:53 PM)93% (Feb 23, 3:53 AM)30.23 "Hg (Feb 23, 3:53 AM)
Low45 °F (Feb 24, 5:53 AM)12% (Feb 14, 11:53 AM)29.75 "Hg (Feb 27, 4:53 PM)
Average61 °F64%29.98 "Hg
* Reported Feb 14 5:53 AM — Mar 1 5:53 AM, Fullerton, Weather by CustomWeather, © 2015

Note: Actual official high and low records may vary slightly from our data, if they occured in-between our weather recording intervals... More about our weather records

Advertising

Fullerton weather history for previous 24 hours

 ConditionsComfort  
Time TempWeatherWind HumidityBarometerVisibility
5:53 AM
Sun, Mar 1
51 °FClear.6 mph86%29.91 "Hg10 mi
4:53 AM51 °FClear.6 mph86%29.90 "Hg10 mi
3:53 AM52 °FPassing clouds.6 mph86%29.90 "Hg10 mi
2:53 AM53 °FPassing clouds.6 mph86%29.90 "Hg10 mi
1:53 AM54 °FRain. Fog.6 mph86%29.91 "Hg5 mi
12:53 AM53 °FPartly cloudy.5 mph83%29.91 "Hg10 mi
11:53 PM
Sat, Feb 28
54 °FPartly cloudy.6 mph86%29.91 "Hg10 mi
10:53 PM54 °FLight rain. Overcast.3 mph80%29.90 "Hg10 mi
9:53 PM56 °FLight rain. Mostly cloudy.9 mph72%29.90 "Hg10 mi
8:53 PM59 °FPassing clouds.No wind60%29.88 "Hg10 mi
7:53 PM58 °FMostly cloudy.3 mph62%29.88 "Hg10 mi
6:53 PM58 °FPassing clouds.6 mph62%29.87 "Hg10 mi
5:53 PM59 °FClear.9 mph54%29.85 "Hg10 mi
4:53 PM62 °FSunny.7 mph52%29.84 "Hg10 mi
3:53 PM64 °FPartly sunny.13 mph43%29.83 "Hg10 mi
2:53 PM64 °FPartly sunny.12 mph45%29.82 "Hg10 mi
1:53 PM63 °FMostly cloudy.10 mph50%29.83 "Hg10 mi
12:53 PM65 °FScattered clouds.13 mph45%29.84 "Hg10 mi
11:53 AM63 °FPartly sunny.10 mph50%29.85 "Hg10 mi
10:53 AM63 °FPartly sunny.8 mph48%29.86 "Hg10 mi
9:53 AM62 °FPartly sunny.8 mph46%29.86 "Hg10 mi
8:53 AM62 °FPartly sunny.12 mph52%29.84 "Hg10 mi
7:53 AM58 °FScattered clouds.5 mph58%29.82 "Hg10 mi
Weather by CustomWeather, © 2015

See weather overviewHow to use our weather pages